This is the latest recevied weather packets stored in our database for station/object KC1IUC-15. If no packets are shown the sender has not sent any weather packets the latest 10 day(s).
| Time | Temp. | Humidity | Pressure | Rain* | Wind** | Luminosity | Snow |
|---|---|---|---|---|---|---|---|
| 1777723203 | 8.89° C | 95% | 1012 hPa | 0.76 mm | - | 50 W/m² | - |
| 1777722903 | 8.89° C | 95% | 1012 hPa | 0.76 mm | - | 50 W/m² | - |
| 1777722603 | 8.89° C | 95% | 1012 hPa | 0.76 mm | - | 50 W/m² | - |
| 1777722303 | 8.89° C | 95% | 1012 hPa | 0.76 mm | - | 50 W/m² | - |
| 1777722003 | 8.89° C | 95% | 1012.3 hPa | 0.76 mm | - | 50 W/m² | - |
| 1777721703 | 8.89° C | 95% | 1012 hPa | 0.76 mm | - | 50 W/m² | - |
| 1777721403 | 8.89° C | 96% | 1012.3 hPa | 0.51 mm | - | 38 W/m² | - |
| 1777721103 | 8.89° C | 96% | 1012.3 hPa | 0.25 mm | - | 10 W/m² | - |
| 1777720803 | 8.89° C | 96% | 1012 hPa | 0.25 mm | - | 9 W/m² | - |
| 1777720503 | 8.89° C | 96% | 1012.3 hPa | 0 mm | - | 15 W/m² | - |
| 1777720203 | 8.89° C | 95% | 1012 hPa | 0 mm | - | 13 W/m² | - |
| 1777719903 | 8.89° C | 95% | 1012 hPa | 0 mm | - | 11 W/m² | - |
| 1777719603 | 8.89° C | 95% | 1012.3 hPa | 0 mm | - | 12 W/m² | - |
| 1777719303 | 8.89° C | 95% | 1012 hPa | 0 mm | - | 13 W/m² | - |
| 1777719004 | 8.89° C | 95% | 1012 hPa | 0 mm | - | 13 W/m² | - |
| 1777718703 | 8.89° C | 95% | 1011.6 hPa | 0 mm | - | 12 W/m² | - |
| 1777718404 | 8.89° C | 95% | 1012 hPa | 0 mm | - | 5 W/m² | - |
| 1777718104 | 8.89° C | 95% | 1012 hPa | 0 mm | - | 10 W/m² | - |
| 1777717803 | 8.89° C | 95% | 1012 hPa | 0 mm | - | 9 W/m² | - |
| 1777717503 | 8.89° C | 95% | 1012 hPa | 0 mm | - | 9 W/m² | - |
| 1777717204 | 8.89° C | 95% | 1011.6 hPa | 0 mm | - | 7 W/m² | - |
| 1777716903 | 8.89° C | 95% | 1011.6 hPa | 0.25 mm | - | 6 W/m² | - |
| 1777716603 | 8.89° C | 94% | 1011.3 hPa | 0.25 mm | - | 13 W/m² | - |
| 1777716303 | 8.89° C | 94% | 1011.3 hPa | 0.25 mm | - | 6 W/m² | - |
| 1777716003 | 8.89° C | 94% | 1011.3 hPa | 0.25 mm | - | 4 W/m² | - |
* Rain latest hour (hover to see other rain measurements)
** Current wind speed in m/s (hover to see current wind gust speed)